Regional Weather Roundup
Issued by NWS Northern Indiana

Home | Current Version | Previous Version | Text Only | Print | Product List | Glossary Off
Versions: 1 2 3 4 5 6 7 8 9 10 11 12 13 14 15 16 17 18 19 20 21 22 23 24 25 26 27 28 29 30 31 32 33 34 35 36 37 38 39 40 41 42 43 44 45 46 47 48 49 50

000
ASUS43 KIWX 220310
RWRIWX

KIWX WEATHER ROUNDUP
NATIONAL WEATHER SERVICE NORTHERN INDIANA
1100 PM EDT TUE MAR 21 2017

NOTE: "FAIR" INDICATES FEW OR NO CLOUDS BELOW 12,000 FEET WITH NO
SIGNIFICANT WEATHER AND/OR OBSTRUCTIONS TO VISIBILITY.

* THESE STATIONS ARE NOT UNDER NWS QUALITY CONTROL. THEY ALSO MAY NOT
  REPORT WEATHER SUCH AS PRECIPITATION OR FOG.

INZ001>027-220400-
NORTHERN INDIANA

CITY           SKY/WX    TMP DP  RH WIND       PRES   REMARKS
GARY*          MOCLDY    36  27  69 N14       30.35R
VALPARAISO     CLEAR     34  26  72 N12       30.32R WCI  25
MICHIGAN CITY* PTCLDY    34  28  80 N17G23    30.33R WCI  23
LAPORTE*       CLEAR     33  25  73 N14       30.31R WCI  23
KNOX*          CLEAR     30  10  43 N7        30.30R WCI  23
SOUTH BEND     CLEAR     31  22  69 N12       30.30R WCI  22
GOSHEN         CLEAR     33  19  56 N7        30.27R WCI  27
MONTICELLO*    CLEAR     34  25  70 N8        30.28R WCI  27
LOGANSPORT*    CLEAR     32  27  80 N8        30.28R WCI  25
ROCHESTER*     CLEAR     36  25  64 N7        30.28R
WARSAW*        CLEAR     32  21  64 N3        30.26R
ANGOLA*        CLEAR     34  19  55 N6        30.25R WCI  29
FORT WAYNE     CLEAR     36  22  56 N16G22    30.25R
HUNTINGTON*    CLEAR     35  22  59 N8        30.25R WCI  28
PERU/GRISSOM   CLEAR     35  24  63 N10       30.25R WCI  28
MARION*        CLEAR     36  25  64 N9        30.25R HAZE

$$
INZ028>050-220400-
CENTRAL INDIANA

CITY           SKY/WX    TMP DP  RH WIND       PRES   REMARKS
LAFAYETTE      CLEAR     35  27  72 N9        30.28R WCI  28
KOKOMO*        CLEAR     36  26  67 N12       30.27R
MUNCIE*        CLEAR     38  27  64 N13       30.23R
INDIANAPOLIS   PTCLDY    42  26  53 N14       30.23R

$$
MIZ043>046-050>051-056>058-064>065-071>073-077>080-220400-
SOUTHWEST LOWER MICHIGAN

CITY           SKY/WX    TMP DP  RH WIND       PRES   REMARKS
BATTLE CREEK   CLEAR     32  17  54 N14G24    30.28R WCI  22
BENTON HARBOR  CLEAR     33  22  63 N8G29     30.32R WCI  26
COLDWATER*     CLEAR     32  19  58 N9        30.26R WCI  24
HILLSDALE*     CLEAR     30  19  64 N9        30.23R WCI  22
HOLLAND        CLEAR     30  15  53 N9        30.36R WCI  22
GRAND RAPIDS   CLEAR     28   9  44 N21G31    30.33R WCI  15
KALAMAZOO      CLEAR     33  16  49 N17G23    30.30R WCI  22
STURGIS*       CLEAR     33  18  55 N14       30.26R WCI  23
THREE RIVERS*  FAIR      33  18  53 N9        30.29R WCI  25

$$
OHZ001>008-015>018-024>025-220400-
NORTHWEST OHIO

CITY           SKY/WX    TMP DP  RH WIND       PRES   REMARKS
WAUSEON*       FAIR      32  21  64 N13G18    30.24R WCI  22
DEFIANCE       CLEAR     33  21  61 N14G21    30.25R WCI  23
FINDLAY        CLEAR     35  23  61 N21       30.21R WCI  24
TOLEDO EXPRESS CLEAR     32  19  58 N14G25    30.24R WCI  22
TOLEDO METCALF CLEAR     34  18  52 N20G31    30.25R WCI  23
LIMA           CLEAR     36  24  62 NW15      30.19R

$$
AND FOR LAKE MICHIGAN COASTAL AND OPEN LAKE BUOY OBSERVATIONS

STATION/POSITION TEMP    WIND        PRES    VSBY  WAVE
                 AIR SEA DIR/SP/G                  HT/PER
                 (F)     (DEG/KT/KT) (MB)    (MI)  (FT/S)
CALUMET HARBOR    34     360/ 16/ 25 1027.3R
MICHIGAN CITY     35     360/ 25/ 28   N/A
BURNS HARBOR      35      10/ 20/ 25 1027.1R
SAINT JOSEPH      34      20/ 20/ 27 1027.4

$$
&&




USA.gov is the U.S. government's official web portal to all federal, state and local government web resources and services.